Regional Weather Roundup
Issued by NWS

Home | Current Version | Previous Version | Graphics & Text | Print | Product List | Glossary On
Versions: 1 2 3 4 5 6 7 8 9 10 11 12 13 14 15 16 17 18 19 20 21 22 23 24 25 26 27 28 29 30 31 32 33 34 35 36 37 38 39 40 41 42 43 44 45 46 47 48 49 50
000
ASUS43 KOAX 161810
RWRNE

WEATHER ROUNDUP FOR NEBRASKA
NATIONAL WEATHER SERVICE OMAHA NE
100 PM CDT WED AUG 16 2017

NOTES: SATELLITE DATA IS BEING USED TO AUGMENT CLOUD COVER ABOVE
       12000 FEET.
       "FAIR" INDICATES FEW OR NO CLOUDS BELOW 12,000 FEET WITH NO
       SIGNIFICANT WEATHER AND/OR OBSTRUCTIONS TO VISIBILITY.


NEZ001>004-019>022-054>056-161900-
NEBRASKA PANHANDLE

CITY           SKY/WX    TMP DP  RH WIND       PRES   REMARKS
SCOTTSBLUFF    MOSUNNY   74  49  41 N14       30.05S
6HR MIN TEMP:  57; 6HR MAX TEMP:  74;

ALLIANCE       CLOUDY    65  56  72 N10       30.05R
6HR MIN TEMP:  57; 6HR MAX TEMP:  66;

CHADRON        CLOUDY    71  56  58 N9        30.03S
6HR MIN TEMP:  61; 6HR MAX TEMP:  72;

GORDON         CLOUDY    64  58  79 N13       30.03R
6HR MIN TEMP:  60; 6HR MAX TEMP:  65;

KIMBALL        PTSUNNY   67  53  58 N13       30.11S
SIDNEY         MOSUNNY   71  53  52 N14       30.07F
6HR MIN TEMP:  58; 6HR MAX TEMP:  71;

$$

NEZ057>060-069>072-079>082-161900-
SOUTHWEST NEBRASKA

CITY           SKY/WX    TMP DP  RH WIND       PRES   REMARKS
NORTH PLATTE   PTSUNNY   75  61  61 NW9       29.94S
6HR MIN TEMP:  60; 6HR MAX TEMP:  75; 6HR PCP: TRACE;

IMPERIAL       PTSUNNY   77  58  51 N17       29.99S
6HR MIN TEMP:  61; 6HR MAX TEMP:  77;

LEXINGTON      CLOUDY    74  61  63 NW13      29.91S
MCCOOK         MOSUNNY   76  63  64 NW15      29.94F
6HR MIN TEMP:  61; 6HR MAX TEMP:  76;

OGALLALA       CLOUDY    67  62  82 NW20      30.00R
$$

NEZ005>010-023>029-035>040-094-161900-
NORTH CENTRAL NEBRASKA

CITY           SKY/WX    TMP DP  RH WIND       PRES   REMARKS
VALENTINE      LGT RAIN  65  59  81 NW13      29.94R
6HR MIN TEMP:  63; 6HR MAX TEMP:  67; 6HR PCP:  0.02;

AINSWORTH      DRIZZLE   64  64  99 N15       29.92R
BROKEN BOW     PTSUNNY   73  62  68 NW12      29.89F
6HR MIN TEMP:  62; 6HR MAX TEMP:  73;

O`NEILL        CLOUDY    67  66  95 N7        29.86F
ORD            MOSUNNY   74  62  66 NW12      29.85S
6HR MIN TEMP:  63; 6HR MAX TEMP:  74; 6HR PCP:  0.07;

THEDFORD       CLOUDY    70  62  75 N9        29.94S
$$

NEZ041-046>049-061>064-073>077-083>087-161900-
SOUTH CENTRAL NEBRASKA

CITY           SKY/WX    TMP DP  RH WIND       PRES   REMARKS
GRAND ISLAND   MOSUNNY   75  64  68 NW16      29.85F
6HR MIN TEMP:  63; 6HR MAX TEMP:  75; 6HR PCP:  0.11;

AURORA         PTSUNNY   72  65  76 NW9       29.84F
HASTINGS       CLOUDY    73  61  65 W16       29.88R
6HR MIN TEMP:  63; 6HR MAX TEMP:  74; 6HR PCP:  0.04;

HEBRON         PTSUNNY   78  65  65 NW12      29.86R
HOLDREGE       CLOUDY    72  60  64 NW14G20   29.91S
KEARNEY        MOSUNNY   75  61  61 NW17      29.89S
YORK           PTSUNNY   73  66  78 NW14G20   29.83F
$$

NEZ011>018-030>034-042>045-161900-
NORTHEAST NEBRASKA

CITY           SKY/WX    TMP DP  RH WIND       PRES   REMARKS
NORFOLK        LGT RAIN  67  65  93 NW9       29.77S FOG
6HR MIN TEMP:  65; 6HR MAX TEMP:  70; 6HR PCP:  0.05;

ALBION         CLOUDY    70  67  88 NW15      29.83R FOG
BLAIR          RAIN      76  70  79 S12       29.78F
COLUMBUS       CLOUDY    72  67  84 W10G18    29.80S
FREMONT        MOSUNNY   76  69  78 W13       29.78S
TEKAMAH        MOSUNNY   76  69  79 S10       29.75F
6HR MIN TEMP:  67; 6HR MAX TEMP:  77; 6HR PCP:  1.12;

WAYNE          CLOUDY    70  68  91 W9        29.77R
$$

NEZ050>053-065>068-078-088>093-161900-
SOUTHEAST NEBRASKA

CITY           SKY/WX    TMP DP  RH WIND       PRES   REMARKS
LINCOLN        MOSUNNY   80  66  62 W15       29.81S
6HR MIN TEMP:  69; 6HR MAX TEMP:  80; 6HR PCP:  0.11;

OMAHA EPPLEY   CLOUDY    79  66  64 S9        29.77F
6HR MIN TEMP:  73; 6HR MAX TEMP:  79; 6HR PCP:  0.12;

BEATRICE       MOSUNNY   78  65  63 W10G17    29.83F
FALLS CITY     MOSUNNY   80  69  69 W10       29.79S
6HR MIN TEMP:  70; 6HR MAX TEMP:  80; 6HR PCP:  0.05;

NEBRASKA CITY  MOSUNNY   78  69  73 W12       29.81S
PLATTSMOUTH    MOSUNNY   78  68  69 SW8       29.80F
$$

NEZ044-045-051>053-067-161900-
OMAHA AREA

CITY           SKY/WX    TMP DP  RH WIND       PRES   REMARKS
OMAHA EPPLEY   CLOUDY    79  66  64 S9        29.77F
6HR MIN TEMP:  73; 6HR MAX TEMP:  79; 6HR PCP:  0.12;

BLAIR          RAIN      76  70  79 S12       29.78F
FREMONT        MOSUNNY   76  69  78 W13       29.78S
MILLARD        MOSUNNY   80  68  67 SW10      29.78F
OFFUTT AFB     PTSUNNY   81  64  56 SW10      29.78F
PLATTSMOUTH    MOSUNNY   78  68  69 SW8       29.80F
WAHOO          CLOUDY    75  68  77 W12       29.79F
$$




USA.gov is the U.S. government's official web portal to all federal, state and local government web resources and services.